Location: Windsor
(43.2292°N, 89.3015°W)
Time: 06:26:04
(UTC+00:00)

DIWATA 2B (PO-101) - Pass Details

Date: 26 June 2022
Orbit: 583 x 599 km, 98.0° (Epoch: 15 August)

Event Time Altitude Azimuth Distance (km) Brightness Sun altitude
Exits shadow 07:23:23 25° 131° (SE) 1,233 ? -20.7°
Maximum altitude 07:25:30 45° 72° (ENE) 818 ? -20.6°
Drops below altitude 10° 07:29:32 10° 359° (N) 1,948 ? -20.3°
Sets 07:31:47 0° 354° (N) 2,856 ? -20.2°
